Regional Weather Roundup
Issued by NWS

Home | Current Version | Previous Version | Graphics & Text | Print | Product List | Glossary On
Versions: 1 2 3 4 5 6 7 8 9 10 11 12 13 14 15 16 17 18 19 20 21 22 23 24 25 26 27 28 29 30 31 32 33 34 35 36 37 38 39 40 41 42 43 44 45 46 47 48 49 50
000
ASUS43 KDTX 042101
RWRMI
MICHIGAN HOURLY REGIONAL WEATHER ROUNDUP
NATIONAL WEATHER SERVICE DETROIT/PONTIAC MI
400 PM EST WED MAR 04 2015

NOTE: "FAIR" INDICATES FEW OR NO CLOUDS BELOW 12,000 FEET WITH NO
SIGNIFICANT WEATHER AND/OR OBSTRUCTION TO VISIBILITY.

MIZ047>049-052>055-059>063-066>070-074>076-081>083-042200-
SOUTHEAST LOWER MICHIGAN

CITY           SKY/WX    TMP DP  RH WIND       PRES   REMARKS
ADRIAN         CLOUDY    29  14  53 W16       30.00S WCI  17
ALMA           SUNNY     24   6  48 W16       29.99S WCI  10
ANN ARBOR      CLOUDY    31  11  43 W20       29.97R WCI  19
BAD AXE        SUNNY     26  12  54 NW17G23   29.94R WCI  13
CARO           MOSUNNY   28  12  52 W15       29.95R WCI  16
DETROIT CITY   CLOUDY    35  12  38 W13       29.94S WCI  26
DETROIT        CLOUDY    33  15  47 SW14      29.96S WCI  23
FLINT          PTSUNNY   28  11  48 W21       29.97R WCI  15
GROSSE ILE     CLOUDY    34  12  40 W15G22    29.94F WCI  24
HILLSDALE      PTSUNNY   26  12  55 W16G23    29.98R WCI  14
HOWELL         PTSUNNY   27  11  50 W17       29.97R WCI  14

CITY           SKY/WX    TMP DP  RH WIND       PRES   REMARKS
JACKSON        MOSUNNY   26  10  50 NW16G26   30.00R WCI  14
LAMBERTVILLE   CLOUDY    32  19  59 W14G21    30.00R WCI  22
LANSING        MOSUNNY   23   9  55 W16       30.01R WCI  10
LAPEER         CLOUDY    28  11  47 W15G22    29.95S WCI  17
MASON          MOSUNNY   25  10  53 W17G25    30.00R WCI  11
MONROE         CLOUDY    32  18  55 W15       29.96F WCI  22
MT. CLEMENS    PTSUNNY   33  10  38 W16       29.91R WCI  22
PONTIAC        CLOUDY    28  11  48 W20       29.93S WCI  15
PORT HOPE        N/A     27   8  44 W12G23    29.93R WCI  17
PORT HURON     CLOUDY    32   7  34 W10G24    29.94R WCI  24
TRI CITIES     MOSUNNY   27   9  46 W16       29.96S WCI  15
TROY           CLOUDY    33   9  36 W15       29.95F WCI  23
SAGINAW HB     MOSUNNY   28  10  47 SW18G25   29.96S WCI  16
$$
MIZ043>046-050>051-056>058-064>065-071>073-077>080-042200-
SOUTHWEST LOWER MICHIGAN

CITY           SKY/WX    TMP DP  RH WIND       PRES   REMARKS
BATTLE CREEK   CLOUDY    23  10  57 W16G29    30.06R WCI  10
BENTON HARBOR  PTSUNNY   20   8  60 NW10G23   30.15R WCI   9
BIG RAPIDS     MOSUNNY   18   3  52 NW16G24   30.00R WCI   3
COLDWATER      MOSUNNY   23  12  62 NW16G22   30.04R WCI  10
FREMONT        FAIR      18   1  48 NW14G23   30.07R WCI   4
HOLLAND        CLOUDY    21   8  57 NW13G23   30.11R WCI   9
GRAND RAPIDS   MOSUNNY   20   5  52 W18G25    30.07R WCI   5
IONIA          FAIR      23   7  50 W23G29    30.01R WCI   7
KALAMAZOO      MOSUNNY   21   8  57 NW15G25   30.09R WCI   8
LUDINGTON      SUNNY     18   2  48 NW16G24   30.09R WCI   3
MARSHALL       CLOUDY    24  11  58 NW10G21   30.03R WCI  13
MOUNT PLEASANT SUNNY     24   4  43 W9G21     29.98S WCI  14
MUSKEGON       PTSUNNY   19   5  54 NW16G29   30.11R WCI   4
SOUTH HAVEN    CLOUDY    21   8  57 NW14G24   30.13R WCI   8
$$
MIZ016>042-042200-
NORTHERN LOWER MICHIGAN

CITY           SKY/WX    TMP DP  RH WIND       PRES   REMARKS
ALPENA         CLOUDY    19   4  51 NW14G22   29.94R WCI   6
BEAVER ISLAND  LGT SNOW  13   6  73 W10G17    30.00R WCI   0
BELLAIRE       LGT SNOW  15   4  61 W9        30.03R WCI   3
CADILLAC       PTSUNNY   15   4  62 W13G25    29.96R WCI   1
CHARLEVOIX     CLOUDY    12   2  64 W14       30.04R WCI  -3
FRANKFORT      SUNNY     16   1  53 W15G21    30.05S WCI   1
GAYLORD        LGT SNOW  10   4  76 W14G22    29.93R VSB 1   WCI  -6
GRAYLING       CLOUDY    15   4  60 W13G22    29.96R WCI   2
HARBOR SPRINGS PTSUNNY   12   6  77 SW10G16   29.99R HAZE    WCI  -2
HOUGHTON LAKE  MOSUNNY   17   2  51 W21       29.94R WCI   0
MANISTEE       MOSUNNY   16   0  48 W20G25    30.07R WCI  -1
OSCODA         PTSUNNY   26   8  46 W15G23    29.92S WCI  13
PELLSTON       LGT SNOW  11   5  77 NW13      30.00R VSB 1   WCI  -4
ROGERS CITY    PTSUNNY   15   4  61 W12G21    29.98R WCI   2
TRAVERSE CITY  PTSUNNY   15   2  56 W15       30.02R WCI   0
$$
MIZ007>008-015-042200-
EASTERN UPPER MICHIGAN

CITY           SKY/WX    TMP DP  RH WIND       PRES   REMARKS
KINROSS        CLOUDY     9   0  66 NW21G30   29.97R WCI -11
MACKINAC ISLAN CLOUDY    15  -1  47 W14       29.97R WCI   1
NEWBERRY       CLOUDY     7  -1  71 NW14G22   29.99R HAZE    WCI -10
S. S. MARIE    MIX PCPN   6  -4  63 NW20G30   29.99R WCI -14
MUNISING         N/A      8   0  69 N13G29    30.05R WCI  -8
$$
MIZ004>006-011>014-085-042200-
CENTRAL UPPER MICHIGAN

CITY           SKY/WX    TMP DP  RH WIND       PRES   REMARKS
MANISTIQUE     LGT SNOW   9   4  82 N10       30.02R WCI  -6
ESCANABA       CLOUDY    12  -8  40 NW12G22   30.05R WCI  -2
MENOMINEE      MOSUNNY   16 -11  29 NW13G20   30.05R WCI   2
SAWYER-GWINN   MOSUNNY    7 -11  43 W17G23    29.99R HAZE    WCI -12
$$
MIZ001>003-009>011-084-042200-
WESTERN UPPER MICHIGAN

CITY           SKY/WX    TMP DP  RH WIND       PRES   REMARKS
IRON MOUNTAIN  PTSUNNY    8  -8  48 NW17G29   30.01R WCI -10
HOUGHTON       PTSUNNY    3  -6  66 W26G37    30.02R HAZE    WCI -21
COPPER HARBOR    N/A      4  -9  55 N17G29    30.05R WCI -16
IRONWOOD       CLOUDY     3  -6  66 W18       30.07R WCI -17
$$

ABBREVIATIONS USED IN REMARKS
   TC - TEMPERATURE IN CELSIUS
  WCI - WIND CHILL INDEX
   HX - HEAT INDEX
  VSB - VISIBILITY




USA.gov is the U.S. government's official web portal to all federal, state and local government web resources and services.